Location: Observatoire de Paris
(48.8363°N, 2.3365°E)
Time: 05:11:23
(UTC+01:00)

Explorer 11/Cluster Stage 4 - All Passes

Search period start: 06 August 2021 00:00
Search period end: 16 August 2021 00:00
Orbit: 467 x 1257 km, 28.8° (Epoch: 05 August)

Date Brightness Start Highest point End Pass type
(mag) Time Alt. Az. Time Alt. Az. Time Alt. Az.
06 Aug - 08:11:04 10° S 08:14:17 13° SSE 08:17:39 10° SE daylight
06 Aug - 09:57:25 10° SW 10:01:56 17° S 10:06:37 10° SE daylight
06 Aug - 11:46:42 10° SW 11:49:39 12° SSW 11:52:36 10° S daylight
07 Aug - 07:59:39 10° SSW 08:02:50 13° SSE 08:06:12 10° SE daylight
07 Aug - 09:46:12 10° SW 09:50:28 16° S 09:54:57 10° SSE daylight
07 Aug - 11:36:03 10° SW 11:38:10 11° SSW 11:40:18 10° S daylight
08 Aug - 07:48:20 10° SSW 07:51:25 13° SSE 07:54:41 10° SE daylight
08 Aug - 09:35:04 10° SW 09:39:01 15° S 09:43:12 10° SSE daylight
09 Aug - 07:37:07 10° SSW 07:40:01 13° S 07:43:06 10° SE daylight
09 Aug - 09:24:04 10° SW 09:27:36 14° S 09:31:20 10° SSE daylight
10 Aug - 07:26:01 10° SSW 07:28:38 13° S 07:31:25 10° SSE daylight
10 Aug - 09:13:12 10° SSW 09:16:12 13° S 09:19:20 10° SSE daylight
11 Aug - 07:15:02 10° SSW 07:17:16 12° S 07:19:39 10° SSE daylight
11 Aug - 09:02:35 10° SSW 09:04:47 12° S 09:07:06 10° S daylight
12 Aug - 07:04:13 10° S 07:05:56 11° S 07:07:43 10° SSE daylight
12 Aug - 08:52:49 10° SSW 08:53:25 10° S 08:54:01 10° S daylight
13 Aug - 06:53:55 10° S 06:54:37 10° S 06:55:19 10° S daylight
